Погода в Еленя-Гура

Польша     50°52′01″N   15°40′47″E
темп.,
°C
ветер,
м/с
пор.,
м/с
влажн.,
%
обл.,
%
осадки,
мм/ч
давл.,
гПа
погр.,
м
4 августа, ср
ср423:00+12ююв1190100 1.2 101414
02:00+12юз2291100 1.5 101533
05:00+11юз2498100 0.4 1014133
08:00+11ююз2397100 1.8 1014187
11:00+12юз1297100 2.8 1015135
14:00+15юз238026 2.9 1014663
17:00+16юз2268100 0.3 1013979
20:00+14ю1187100 0.8 101312
5 августа, чт
чт523:00+11зюз0193100 0.0 101310
02:00+11ссз0191100 0.0 101211
05:00+11ссв1191100 0.0 101110
08:00+13всв1189100 0.1 101097
11:00+13всв1292100 2.1 1010117
14:00+13в129198 3.4 1010210
17:00+13всв128996 0.4 1009246
20:00+12св1293100 0.4 100949
6 августа, пт
пт623:00+11с1191100 0.0 100926
02:00+10с0189100 0.0 100912
05:00+9сз118894 0.0 100810
08:00+14ю007570 0.0 1008164
11:00+18юз125626 0.0 10081238
14:00+18зюз226927 1.5 10081075
17:00+17зюз237665 2.0 1008878
20:00+14юз22915 2.6 100818
7 августа, сб
сб723:00+12зюз22937 0.1 101021
02:00+11зюз22940 0.1 101023
05:00+10юз22969 0.0 101026
08:00+14юз238896 0.0 1011208
11:00+18юз245971 0.0 10101062
14:00+21ююз24494 0.0 10091335
17:00+21ю34535 0.0 10081210
20:00+17вюв1277100 0.0 100716
8 августа, вс
вс823:00+15юв128173 0.0 100620
02:00+14сз3691100 0.0 1008250
05:00+13зюз2490100 0.0 1010308
08:00+14зюз258188 0.1 1012686
11:00+18зюз355620 0.0 10131209
14:00+20зюз4749100 0.0 10131539
17:00+18зюз4658100 0.0 10151126
20:00+13юз2781100 0.1 1017460